"Data set title: Gaging station water sample data. Usage: Event based table used with water chemistry collection from 01-Oct-2021 to 30-Sep-2022",,,,,,,,,,,,
,,,,,,,,,,,,,
"Site","Date","RecNum","SiteID","Flag_SiteID","LOGGERID","PROGID","VNOTCH_INST_0_0_01","Flag_VNOTCH_INST_0_0_01","SAMPLE_INST_0_0_01","Flag_SAMPLE_INST_0_0_01","STAGE_INST_0_0_01","Flag_STAGE_INST_0_0_01"
"","yyyy-MM-dd HH:mm:ss","count","","none","none","none","number","none","count","none","ft","none"
"nominal","datetime","nominal","data","code","nominal","nominal","data","code","data","code","data","code"
"GSWS01_115",2021-10-01 10:14:45,707,101.00,"",115,56186.0,0,"",4,"",0.0520,""
"GSWS01_115",2021-10-01 23:32:45,708,101.00,"",115,56186.0,0,"",5,"",0.0450,""
"GSWS01_115",2021-10-02 12:50:45,709,101.00,"",115,56186.0,0,"",6,"",0.0430,""
"GSWS01_115",2021-10-03 02:08:45,710,101.00,"",115,56186.0,0,"",7,"",0.0410,""
"GSWS01_115",2021-10-03 15:26:45,711,101.00,"",115,56186.0,0,"",8,"",0.0400,""
"GSWS01_115",2021-10-04 04:44:45,712,101.00,"",115,56186.0,0,"",9,"",0.0390,""
"GSWS01_115",2021-10-04 18:02:45,713,101.00,"",115,56186.0,0,"",10,"",0.0370,""
"GSWS01_115",2021-10-05 07:20:45,714,101.00,"",115,56186.0,0,"",11,"",0.0370,""
"GSWS01_115",2021-10-05 07:33:00,715,101.00,"",115,56186.0,0,"",12,"",0.0370,""
"GSWS01_115",2021-10-05 20:38:45,716,101.00,"",115,56186.0,0,"",13,"",0.0390,""
"GSWS01_115",2021-10-06 09:16:00,717,101.00,"",115,56186.0,0,"",14,"",0.0390,""
"GSWS01_115",2021-10-06 09:16:45,718,101.00,"",115,56186.0,0,"",15,"",0.0390,""
"GSWS01_115",2021-10-06 09:17:45,719,101.00,"",115,56186.0,0,"",16,"",0.0380,""
"GSWS01_115",2021-10-06 09:56:45,720,101.00,"",115,56186.0,0,"",17,"",0.0380,""
"GSWS01_115",2021-10-06 23:14:45,721,101.00,"",115,56186.0,0,"",18,"",0.0360,""
"GSWS01_115",2021-10-07 12:32:45,722,101.00,"",115,56186.0,0,"",19,"",0.0350,""
"GSWS01_115",2021-10-08 01:50:45,723,101.00,"",115,56186.0,0,"",20,"",0.0350,""
"GSWS01_115",2021-10-08 15:08:45,724,101.00,"",115,56186.0,0,"",21,"",0.0340,""
"GSWS01_115",2021-10-09 04:26:45,725,101.00,"",115,56186.0,0,"",22,"",0.0330,""
"GSWS01_115",2021-10-09 17:44:45,726,101.00,"",115,56186.0,0,"",23,"",0.0330,""
"GSWS01_115",2021-10-10 07:02:45,727,101.00,"",115,56186.0,0,"",24,"",0.0350,""
"GSWS01_115",2021-10-10 20:20:45,728,101.00,"",115,56186.0,0,"",25,"",0.0360,""
"GSWS01_115",2021-10-11 09:38:45,729,101.00,"",115,56186.0,0,"",26,"",0.0430,""
"GSWS01_115",2021-10-12 12:14:45,730,101.00,"",115,56186.0,0,"",27,"",0.0370,""
"GSWS01_115",2021-10-13 01:32:45,731,101.00,"",115,56186.0,0,"",28,"",0.0390,""
"GSWS01_115",2021-10-13 14:50:45,732,101.00,"",115,56186.0,0,"",29,"",0.0410,""
"GSWS01_115",2021-10-14 04:08:45,733,101.00,"",115,56186.0,0,"",30,"",0.0390,""
"GSWS01_115",2021-10-14 17:26:45,734,101.00,"",115,56186.0,0,"",31,"",0.0410,""
"GSWS01_115",2021-10-15 20:02:45,735,101.00,"",115,56186.0,0,"",32,"",0.0380,""
"GSWS01_115",2021-10-16 09:20:45,736,101.00,"",115,56186.0,0,"",33,"",0.0370,""
"GSWS01_115",2021-10-16 22:38:45,737,101.00,"",115,56186.0,0,"",34,"",0.0350,""
"GSWS01_115",2021-10-17 11:56:45,738,101.00,"",115,56186.0,0,"",35,"",0.0370,""
"GSWS01_115",2021-10-18 01:14:45,739,101.00,"",115,56186.0,0,"",36,"",0.0590,""
"GSWS01_115",2021-10-18 14:32:45,740,101.00,"",115,56186.0,0,"",37,"",0.0470,""
"GSWS01_115",2021-10-19 03:50:45,741,101.00,"",115,56186.0,0,"",38,"",0.0450,""
"GSWS01_115",2021-10-19 13:34:45,742,101.00,"",115,56186.0,0,"",39,"",0.0410,""
"GSWS01_115",2021-10-19 17:08:45,743,101.00,"",115,56186.0,0,"",40,"",0.0400,""
"GSWS01_115",2021-10-20 06:26:45,744,101.00,"",115,56186.0,0,"",41,"",0.0390,""
"GSWS01_115",2021-10-20 19:44:45,745,101.00,"",115,56186.0,0,"",42,"",0.0390,""
"GSWS01_115",2021-10-21 09:02:45,746,101.00,"",115,56186.0,0,"",43,"",0.0390,""
"GSWS01_115",2021-10-21 22:20:45,747,101.00,"",115,56186.0,0,"",44,"",0.1250,""
"GSWS01_115",2021-10-22 11:38:45,748,101.00,"",115,56186.0,0,"",45,"",0.1400,""
"GSWS01_115",2021-10-23 00:56:45,749,101.00,"",115,56186.0,0,"",46,"",0.1440,""
"GSWS01_115",2021-10-23 14:14:45,750,101.00,"",115,56186.0,0,"",47,"",0.1380,""
"GSWS01_115",2021-10-24 03:32:45,751,101.00,"",115,56186.0,0,"",48,"",0.1170,""
"GSWS01_115",2021-10-24 16:50:45,752,101.00,"",115,56186.0,0,"",49,"",0.1600,""
"GSWS01_115",2021-10-25 06:08:45,753,101.00,"",115,56186.0,0,"",50,"",0.1370,""
"GSWS01_115",2021-10-25 19:26:45,754,101.00,"",115,56186.0,0,"",51,"",0.1360,""
"GSWS01_115",2021-10-26 08:44:45,755,101.00,"",115,56186.0,0,"",52,"",0.1990,""
"GSWS01_115",2021-10-26 22:02:45,756,101.00,"",115,56186.0,0,"",53,"",0.1780,""
"GSWS01_115",2021-10-27 11:20:45,757,101.00,"",115,56186.0,0,"",54,"",0.1590,""
"GSWS01_115",2021-10-28 00:38:45,758,101.00,"",115,56186.0,0,"",55,"",0.1510,""
"GSWS01_115",2021-10-28 13:56:45,759,101.00,"",115,56186.0,0,"",56,"",0.1760,""
"GSWS01_115",2021-10-29 03:14:45,760,101.00,"",115,56186.0,0,"",57,"",0.1530,""
"GSWS01_115",2021-10-29 16:32:45,761,101.00,"",115,56186.0,0,"",58,"",0.1810,""
"GSWS01_115",2021-10-30 05:50:45,762,101.00,"",115,56186.0,0,"",59,"",0.1570,""
"GSWS01_115",2021-10-30 19:08:45,763,101.00,"",115,56186.0,0,"",60,"",0.1330,""
"GSWS01_115",2021-10-31 08:26:45,764,101.00,"",115,56186.0,0,"",61,"",0.1160,""
"GSWS01_115",2021-10-31 21:44:45,765,101.00,"",115,56186.0,0,"",62,"",0.1030,""
"GSWS01_115",2021-11-01 11:02:45,766,101.00,"",115,56186.0,0,"",63,"",0.1070,""
"GSWS01_115",2021-11-02 00:20:45,767,101.00,"",115,56186.0,0,"",64,"",0.1250,""
"GSWS01_115",2021-11-02 13:38:45,768,101.00,"",115,56186.0,0,"",65,"",0.1190,""
"GSWS01_115",2021-11-03 02:56:45,769,101.00,"",115,56186.0,0,"",66,"",0.1100,""
"GSWS01_115",2021-11-03 16:14:45,770,101.00,"",115,56186.0,0,"",67,"",0.1040,""
"GSWS01_115",2021-11-04 05:32:45,771,101.00,"",115,56186.0,0,"",68,"",0.1150,""
"GSWS01_115",2021-11-04 18:50:45,772,101.00,"",115,56186.0,0,"",69,"",0.2390,""
"GSWS01_115",2021-11-05 08:08:45,773,101.00,"",115,56186.0,0,"",70,"",0.1910,""
"GSWS01_115",2021-11-05 21:26:45,774,101.00,"",115,56186.0,0,"",71,"",0.1860,""
"GSWS01_115",2021-11-06 10:44:45,775,101.00,"",115,56186.0,0,"",72,"",0.2190,""
"GSWS01_115",2021-11-07 00:02:45,776,101.00,"",115,56186.0,0,"",73,"",0.2120,""
"GSWS01_115",2021-11-07 13:20:45,777,101.00,"",115,56186.0,0,"",74,"",0.1860,""
"GSWS01_115",2021-11-08 02:38:45,778,101.00,"",115,56186.0,0,"",75,"",0.1630,""
"GSWS01_115",2021-11-08 15:56:45,779,101.00,"",115,56186.0,0,"",76,"",0.1450,""
"GSWS01_115",2021-11-09 05:14:45,780,101.00,"",115,56186.0,0,"",77,"",0.1720,""
"GSWS01_115",2021-11-09 13:31:45,781,101.00,"",115,56186.0,0,"",78,"",0.1910,""
"GSWS01_115",2021-11-09 18:32:45,782,101.00,"",115,56186.0,0,"",1,"",0.1860,""
"GSWS01_115",2021-11-10 07:50:45,783,101.00,"",115,56186.0,0,"",2,"",0.1680,""
"GSWS01_115",2021-11-10 21:08:45,784,101.00,"",115,56186.0,0,"",3,"",0.1780,""
"GSWS01_115",2021-11-11 01:34:45,785,101.00,"",115,56186.0,0,"",4,"",0.6410,""
"GSWS01_115",2021-11-11 06:00:45,786,101.00,"",115,56186.0,0,"",5,"",0.7060,""
"GSWS01_115",2021-11-11 09:22:45,787,101.00,"",115,56186.0,0,"",6,"",0.8100,""
"GSWS01_115",2021-11-11 12:44:45,788,101.00,"",115,56186.0,0,"",7,"",0.7410,""
"GSWS01_115",2021-11-11 17:11:00,789,101.00,"",115,56186.0,0,"",8,"",0.5800,""
"GSWS01_115",2021-11-15 20:54:45,790,101.00,"",115,56186.0,0,"",9,"",0.1800,""
"GSWS01_115",2021-11-16 10:12:45,791,101.00,"",115,56186.0,0,"",10,"",0.1620,""
"GSWS01_115",2021-11-16 23:30:45,792,101.00,"",115,56186.0,0,"",11,"",0.1490,""
"GSWS01_115",2021-11-17 12:48:45,793,101.00,"",115,56186.0,0,"",12,"",0.1420,""
"GSWS01_115",2021-11-18 02:06:45,794,101.00,"",115,56186.0,0,"",13,"",0.1340,""
"GSWS01_115",2021-11-18 15:24:45,795,101.00,"",115,56186.0,0,"",14,"",0.1270,""
"GSWS01_115",2021-11-19 04:42:45,796,101.00,"",115,56186.0,0,"",15,"",0.1280,""
"GSWS01_115",2021-11-19 18:00:45,797,101.00,"",115,56186.0,0,"",16,"",0.1270,""
"GSWS01_115",2021-11-20 07:18:45,798,101.00,"",115,56186.0,0,"",17,"",0.1210,""
"GSWS01_115",2021-11-20 20:36:45,799,101.00,"",115,56186.0,0,"",18,"",0.1170,""
"GSWS01_115",2021-11-21 09:54:45,800,101.00,"",115,56186.0,0,"",19,"",0.1130,""
"GSWS01_115",2021-11-21 23:12:45,801,101.00,"",115,56186.0,0,"",20,"",0.1110,""
"GSWS01_115",2021-11-22 12:30:45,802,101.00,"",115,56186.0,0,"",21,"",0.1070,""
"GSWS01_115",2021-11-23 01:48:45,803,101.00,"",115,56186.0,0,"",22,"",0.1090,""
"GSWS01_115",2021-11-23 15:06:45,804,101.00,"",115,56186.0,0,"",23,"",0.1780,""
"GSWS01_115",2021-11-24 04:24:45,805,101.00,"",115,56186.0,0,"",24,"",0.1780,""
"GSWS01_115",2021-11-24 17:42:45,806,101.00,"",115,56186.0,0,"",25,"",0.1610,""
"GSWS01_115",2021-11-25 07:00:45,807,101.00,"",115,56186.0,0,"",26,"",0.1510,""
"GSWS01_115",2021-11-25 20:18:45,808,101.00,"",115,56186.0,0,"",27,"",0.1390,""
"GSWS01_115",2021-11-26 09:36:45,809,101.00,"",115,56186.0,0,"",28,"",0.1630,""
"GSWS01_115",2021-11-26 22:54:45,810,101.00,"",115,56186.0,0,"",29,"",0.1720,""
"GSWS01_115",2021-11-27 12:12:45,811,101.00,"",115,56186.0,0,"",30,"",0.1680,""
"GSWS01_115",2021-11-28 01:30:45,812,101.00,"",115,56186.0,0,"",31,"",0.2540,""
"GSWS01_115",2021-11-28 14:48:45,813,101.00,"",115,56186.0,0,"",32,"",0.2420,""
"GSWS01_115",2021-11-29 04:06:45,814,101.00,"",115,56186.0,0,"",33,"",0.2080,""
"GSWS01_115",2021-11-29 17:24:45,815,101.00,"",115,56186.0,0,"",34,"",0.1850,""
"GSWS01_115",2021-11-30 06:42:45,816,101.00,"",115,56186.0,0,"",35,"",0.1660,""
"GSWS01_115",2021-11-30 20:00:45,817,101.00,"",115,56186.0,0,"",36,"",0.1510,""
"GSWS01_115",2021-12-01 09:18:45,818,101.00,"",115,56186.0,0,"",37,"",0.1390,""
"GSWS01_115",2021-12-01 14:57:45,819,101.00,"",115,56186.0,0,"",38,"",0.1360,""
"GSWS01_115",2021-12-01 22:36:45,820,101.00,"",115,56186.0,0,"",1,"",0.1320,""
"GSWS01_115",2021-12-02 11:54:45,821,101.00,"",115,56186.0,0,"",2,"",0.1240,""
"GSWS01_115",2021-12-03 01:12:45,822,101.00,"",115,56186.0,0,"",3,"",0.1190,""
"GSWS01_115",2021-12-03 14:30:45,823,101.00,"",115,56186.0,0,"",4,"",0.1140,""
"GSWS01_115",2021-12-04 03:48:45,824,101.00,"",115,56186.0,0,"",5,"",0.1100,""
"GSWS01_115",2021-12-04 17:06:45,825,101.00,"",115,56186.0,0,"",6,"",0.1050,""
"GSWS01_115",2021-12-05 06:24:45,826,101.00,"",115,56186.0,0,"",7,"",0.1040,""
"GSWS01_115",2021-12-05 19:42:45,827,101.00,"",115,56186.0,0,"",8,"",0.1000,""
"GSWS01_115",2021-12-06 09:00:45,828,101.00,"",115,56186.0,0,"",9,"",0.1040,""
"GSWS01_115",2021-12-06 22:18:45,829,101.00,"",115,56186.0,0,"",10,"",0.1750,""
"GSWS01_115",2021-12-07 11:36:45,830,101.00,"",115,56186.0,0,"",11,"",0.1760,""
"GSWS01_115",2021-12-08 00:54:45,831,101.00,"",115,56186.0,0,"",12,"",0.1720,""
"GSWS01_115",2021-12-08 14:12:45,832,101.00,"",115,56186.0,0,"",13,"",0.1670,""
"GSWS01_115",2021-12-09 03:30:45,833,101.00,"",115,56186.0,0,"",14,"",0.1590,""
"GSWS01_115",2021-12-09 16:48:45,834,101.00,"",115,56186.0,0,"",15,"",0.1630,""
"GSWS01_115",2021-12-10 06:06:45,835,101.00,"",115,56186.0,0,"",16,"",0.1780,""
"GSWS01_115",2021-12-10 19:24:45,836,101.00,"",115,56186.0,0,"",17,"",0.2190,""
"GSWS01_115",2021-12-11 08:42:45,837,101.00,"",115,56186.0,0,"",18,"",0.2270,""
"GSWS01_115",2021-12-11 15:20:45,838,101.00,"",115,56186.0,0,"",19,"",0.3600,""
"GSWS01_115",2021-12-11 21:58:45,839,101.00,"",115,56186.0,0,"",20,"",0.5140,""
"GSWS01_115",2021-12-12 02:24:45,840,101.00,"",115,56186.0,0,"",21,"",0.6610,""
"GSWS01_115",2021-12-12 06:50:45,841,101.00,"",115,56186.0,0,"",22,"",0.6760,""
"GSWS01_115",2021-12-12 11:16:45,842,101.00,"",115,56186.0,0,"",23,"",0.6040,""
"GSWS01_115",2021-12-12 17:54:45,843,101.00,"",115,56186.0,0,"",24,"",0.4950,""
"GSWS01_115",2021-12-13 00:32:45,844,101.00,"",115,56186.0,0,"",25,"",0.4140,""
"GSWS01_115",2021-12-13 07:10:45,845,101.00,"",115,56186.0,0,"",26,"",0.3620,""
"GSWS01_115",2021-12-13 20:28:45,846,101.00,"",115,56186.0,0,"",27,"",0.3360,""
"GSWS01_115",2021-12-14 09:46:45,847,101.00,"",115,56186.0,0,"",28,"",0.2930,""
"GSWS01_115",2021-12-14 23:04:45,848,101.00,"",115,56186.0,0,"",29,"",0.2500,""
"GSWS01_115",2021-12-15 12:22:45,849,101.00,"",115,56186.0,0,"",30,"",0.2250,""
"GSWS01_115",2021-12-16 01:40:45,850,101.00,"",115,56186.0,0,"",31,"",0.2030,""
"GSWS01_115",2021-12-16 14:58:45,851,101.00,"",115,56186.0,0,"",32,"",0.2250,""
"GSWS01_115",2021-12-17 04:16:45,852,101.00,"",115,56186.0,0,"",33,"",0.3030,""
"GSWS01_115",2021-12-17 17:34:45,853,101.00,"",115,56186.0,0,"",34,"",0.2960,""
"GSWS01_115",2021-12-18 06:52:45,854,101.00,"",115,56186.0,0,"",35,"",0.2670,""
"GSWS01_115",2021-12-18 20:10:45,855,101.00,"",115,56186.0,0,"",36,"",0.2480,""
"GSWS01_115",2021-12-19 05:13:15,856,101.00,"",115,56186.0,0,"",37,"",0.3580,""
"GSWS01_115",2021-12-19 09:39:30,857,101.00,"",115,56186.0,0,"",38,"",0.5560,""
"GSWS01_115",2021-12-19 13:36:45,858,101.00,"",115,56186.0,0,"",39,"",0.7150,""
"GSWS01_115",2021-12-19 16:58:45,859,101.00,"",115,56186.0,0,"",40,"",0.7740,""
"GSWS01_115",2021-12-19 20:20:45,860,101.00,"",115,56186.0,0,"",41,"",0.7780,""
"GSWS01_115",2021-12-19 23:42:45,861,101.00,"",115,56186.0,0,"",42,"",0.7420,""
"GSWS01_115",2021-12-20 04:08:45,862,101.00,"",115,56186.0,0,"",43,"",0.6660,""
"GSWS01_115",2021-12-20 08:34:45,863,101.00,"",115,56186.0,0,"",44,"",0.5900,""
"GSWS01_115",2021-12-20 08:57:00,864,101.00,"",115,56186.0,0,"",45,"",0.5900,""
"GSWS01_115",2021-12-20 13:00:45,865,101.00,"",115,56186.0,0,"",1,"",0.5860,""
"GSWS01_115",2021-12-20 17:26:45,866,101.00,"",115,56186.0,0,"",2,"",0.5750,""
"GSWS01_115",2021-12-21 00:04:45,867,101.00,"",115,56186.0,0,"",3,"",0.5180,""
"GSWS01_115",2021-12-21 06:42:45,868,101.00,"",115,56186.0,0,"",4,"",0.4560,""
"GSWS01_115",2021-12-21 13:20:45,869,101.00,"",115,56186.0,0,"",5,"",0.4030,""
"GSWS01_115",2021-12-21 19:58:45,870,101.00,"",115,56186.0,0,"",6,"",0.3680,""
"GSWS01_115",2021-12-22 09:16:45,871,101.00,"",115,56186.0,0,"",7,"",0.3050,""
"GSWS01_115",2021-12-22 22:34:45,872,101.00,"",115,56186.0,0,"",8,"",0.3440,""
"GSWS01_115",2021-12-23 05:12:45,873,101.00,"",115,56186.0,0,"",9,"",0.3930,""
"GSWS01_115",2021-12-23 11:50:45,874,101.00,"",115,56186.0,0,"",10,"",0.4530,""
"GSWS01_115",2021-12-23 18:28:45,875,101.00,"",115,56186.0,0,"",11,"",0.4460,""
"GSWS01_115",2021-12-24 01:06:45,876,101.00,"",115,56186.0,0,"",12,"",0.4150,""
"GSWS01_115",2021-12-24 07:44:45,877,101.00,"",115,56186.0,0,"",13,"",0.3890,""
"GSWS01_115",2021-12-24 14:22:45,878,101.00,"",115,56186.0,0,"",14,"",0.3720,""
"GSWS01_115",2021-12-25 03:40:45,879,101.00,"",115,56186.0,0,"",15,"",0.3350,""
"GSWS01_115",2021-12-25 16:58:45,880,101.00,"",115,56186.0,0,"",16,"",0.2910,""
"GSWS01_115",2021-12-26 06:16:45,881,101.00,"",115,56186.0,0,"",17,"",0.2560,""
"GSWS01_115",2021-12-26 19:34:45,882,101.00,"",115,56186.0,0,"",18,"",0.2300,""
"GSWS01_115",2021-12-27 08:52:45,883,101.00,"",115,56186.0,0,"",19,"",0.2100,""
"GSWS01_115",2021-12-27 22:10:45,884,101.00,"",115,56186.0,0,"",20,"",0.1950,""
"GSWS01_115",2021-12-28 11:28:45,885,101.00,"",115,56186.0,0,"",21,"",0.1860,""
"GSWS01_115",2021-12-29 00:46:45,886,101.00,"",115,56186.0,0,"",22,"",0.1810,""
"GSWS01_115",2021-12-29 14:04:45,887,101.00,"",115,56186.0,0,"",23,"",0.1720,""
"GSWS01_115",2021-12-30 03:22:45,888,101.00,"",115,56186.0,0,"",24,"",0.1630,""
"GSWS01_115",2021-12-30 16:40:45,889,101.00,"",115,56186.0,0,"",25,"",0.1650,""
"GSWS01_115",2021-12-31 05:58:45,890,101.00,"",115,56186.0,0,"",26,"",0.1700,""
"GSWS01_115",2021-12-31 19:16:45,891,101.00,"",115,56186.0,0,"",27,"",0.1620,""
"GSWS01_115",2022-01-01 08:34:45,892,101.00,"",115,56186.0,0,"",28,"",0.1530,""
"GSWS01_115",2022-01-02 11:10:45,893,101.00,"",115,56186.0,0,"",29,"",0.1460,""
"GSWS01_115",2022-01-03 00:28:45,894,101.00,"",115,56186.0,0,"",30,"",0.1540,""
"GSWS01_115",2022-01-03 08:45:30,895,101.00,"",115,56186.0,0,"",31,"",0.3590,""
"GSWS01_115",2022-01-03 15:23:30,896,101.00,"",115,56186.0,0,"",32,"",0.4840,""
"GSWS01_115",2022-01-03 22:01:30,897,101.00,"",115,56186.0,0,"",33,"",0.4730,""
"GSWS01_115",2022-01-04 04:39:30,898,101.00,"",115,56186.0,0,"",34,"",0.4160,""
"GSWS01_115",2022-01-04 11:17:30,899,101.00,"",115,56186.0,0,"",35,"",0.3820,""
"GSWS01_115",2022-01-04 17:55:30,900,101.00,"",115,56186.0,0,"",36,"",0.4210,""
"GSWS01_115",2022-01-05 00:33:30,901,101.00,"",115,56186.0,0,"",37,"",0.5150,""
"GSWS01_115",2022-01-05 04:59:30,902,101.00,"",115,56186.0,0,"",38,"",0.6150,""
"GSWS01_115",2022-01-05 09:25:30,903,101.00,"",115,56186.0,0,"",39,"",0.6910,""
"GSWS01_115",2022-01-05 12:47:30,904,101.00,"",115,56186.0,0,"",40,"",0.7420,""
"GSWS01_115",2022-01-05 16:09:30,905,101.00,"",115,56186.0,0,"",41,"",0.7760,""
"GSWS01_115",2022-01-05 18:51:30,906,101.00,"",115,56186.0,0,"",42,"",0.8410,""
"GSWS01_115",2022-01-05 21:33:30,907,101.00,"",115,56186.0,0,"",43,"",0.8940,""
"GSWS01_115",2022-01-06 00:15:30,908,101.00,"",115,56186.0,0,"",44,"",0.8970,""
"GSWS01_115",2022-01-06 02:57:30,909,101.00,"",115,56186.0,0,"",45,"",0.8870,""
"GSWS01_115",2022-01-06 05:11:30,910,101.00,"",115,56186.0,0,"",46,"",0.9260,""
"GSWS01_115",2022-01-06 07:25:30,911,101.00,"",115,56186.0,0,"",47,"",0.9870,""
"GSWS01_115",2022-01-06 09:39:30,912,101.00,"",115,56186.0,0,"",48,"",1.0070,""
"GSWS01_115",2022-01-06 11:53:30,913,101.00,"",115,56186.0,0,"",49,"",0.9720,""
"GSWS01_115",2022-01-06 14:07:30,914,101.00,"",115,56186.0,0,"",50,"",0.9250,""
"GSWS01_115",2022-01-06 16:49:30,915,101.00,"",115,56186.0,0,"",51,"",0.8720,""
"GSWS01_115",2022-01-06 20:11:30,916,101.00,"",115,56186.0,0,"",52,"",0.7990,""
"GSWS01_115",2022-01-06 23:33:30,917,101.00,"",115,56186.0,0,"",53,"",0.7390,""
"GSWS01_115",2022-01-07 02:55:30,918,101.00,"",115,56186.0,0,"",54,"",0.7180,""
"GSWS01_115",2022-01-07 07:21:30,919,101.00,"",115,56186.0,0,"",55,"",0.7120,""
"GSWS01_115",2022-01-07 10:43:30,920,101.00,"",115,56186.0,0,"",56,"",0.7430,""
"GSWS01_115",2022-01-07 14:05:30,921,101.00,"",115,56186.0,0,"",57,"",0.7670,""
"GSWS01_115",2022-01-07 17:27:30,922,101.00,"",115,56186.0,0,"",58,"",0.7490,""
"GSWS01_115",2022-01-07 21:53:30,923,101.00,"",115,56186.0,0,"",59,"",0.6820,""
"GSWS01_115",2022-01-08 02:19:30,924,101.00,"",115,56186.0,0,"",60,"",0.5900,""
"GSWS01_115",2022-01-08 08:57:30,925,101.00,"",115,56186.0,0,"",61,"",0.5020,""
"GSWS01_115",2022-01-08 15:35:30,926,101.00,"",115,56186.0,0,"",62,"",0.4440,""
"GSWS01_115",2022-01-08 22:13:30,927,101.00,"",115,56186.0,0,"",63,"",0.3980,""
"GSWS01_115",2022-01-09 04:51:30,928,101.00,"",115,56186.0,0,"",64,"",0.3660,""
"GSWS01_115",2022-01-09 18:09:30,929,101.00,"",115,56186.0,0,"",65,"",0.3170,""
"GSWS01_115",2022-01-10 07:27:30,930,101.00,"",115,56186.0,0,"",66,"",0.2860,""
"GSWS01_115",2022-01-10 20:45:30,931,101.00,"",115,56186.0,0,"",67,"",0.2800,""
"GSWS01_115",2022-01-11 10:03:30,932,101.00,"",115,56186.0,0,"",68,"",0.2920,""
"GSWS01_115",2022-01-11 23:21:30,933,101.00,"",115,56186.0,0,"",1,"",0.3250,""
"GSWS01_115",2022-01-12 12:39:30,934,101.00,"",115,56186.0,0,"",2,"",0.3270,""
"GSWS01_115",2022-01-13 01:57:30,935,101.00,"",115,56186.0,0,"",3,"",0.3220,""
"GSWS01_115",2022-01-13 14:07:30,936,101.00,"",115,56186.0,0,"",4,"",0.3580,""
"GSWS01_115",2022-01-13 20:45:30,937,101.00,"",115,56186.0,0,"",5,"",0.4230,""
"GSWS01_115",2022-01-14 03:23:30,938,101.00,"",115,56186.0,0,"",6,"",0.4420,""
"GSWS01_115",2022-01-14 10:01:30,939,101.00,"",115,56186.0,0,"",7,"",0.4110,""
"GSWS01_115",2022-01-14 16:39:30,940,101.00,"",115,56186.0,0,"",8,"",0.3810,""
"GSWS01_115",2022-01-15 05:57:30,941,101.00,"",115,56186.0,0,"",9,"",0.3390,""
"GSWS01_115",2022-01-15 19:15:30,942,101.00,"",115,56186.0,0,"",10,"",0.3060,""
"GSWS01_115",2022-01-16 08:33:30,943,101.00,"",115,56186.0,0,"",11,"",0.2850,""
"GSWS01_115",2022-01-16 21:51:30,944,101.00,"",115,56186.0,0,"",12,"",0.2700,""
"GSWS01_115",2022-01-17 11:09:30,945,101.00,"",115,56186.0,0,"",13,"",0.2580,""
"GSWS01_115",2022-01-18 00:27:30,946,101.00,"",115,56186.0,0,"",14,"",0.2450,""
"GSWS01_115",2022-01-18 13:45:30,947,101.00,"",115,56186.0,0,"",15,"",0.2300,""
"GSWS01_115",2022-01-19 03:03:30,948,101.00,"",115,56186.0,0,"",16,"",0.2220,""
"GSWS01_115",2022-01-19 16:21:30,949,101.00,"",115,56186.0,0,"",17,"",0.2290,""
"GSWS01_115",2022-01-20 05:39:30,950,101.00,"",115,56186.0,0,"",18,"",0.3160,""
"GSWS01_115",2022-01-20 12:17:30,951,101.00,"",115,56186.0,0,"",19,"",0.3810,""
"GSWS01_115",2022-01-20 18:55:30,952,101.00,"",115,56186.0,0,"",20,"",0.3840,""
"GSWS01_115",2022-01-21 01:33:30,953,101.00,"",115,56186.0,0,"",21,"",0.3640,""
"GSWS01_115",2022-01-21 14:51:30,954,101.00,"",115,56186.0,0,"",22,"",0.3150,""
"GSWS01_115",2022-01-22 04:09:30,955,101.00,"",115,56186.0,0,"",23,"",0.2800,""
"GSWS01_115",2022-01-22 17:27:30,956,101.00,"",115,56186.0,0,"",24,"",0.2520,""
"GSWS01_115",2022-01-23 06:45:30,957,101.00,"",115,56186.0,0,"",25,"",0.2280,""
"GSWS01_115",2022-01-23 20:03:30,958,101.00,"",115,56186.0,0,"",26,"",0.2110,""
"GSWS01_115",2022-01-24 09:21:30,959,101.00,"",115,56186.0,0,"",27,"",0.1980,""
"GSWS01_115",2022-01-24 22:39:30,960,101.00,"",115,56186.0,0,"",28,"",0.1880,""
"GSWS01_115",2022-01-25 11:57:30,961,101.00,"",115,56186.0,0,"",29,"",0.1790,""
"GSWS01_115",2022-01-26 01:15:30,962,101.00,"",115,56186.0,0,"",30,"",0.1700,""
"GSWS01_115",2022-01-26 14:33:30,963,101.00,"",115,56186.0,0,"",31,"",0.1610,""
"GSWS01_115",2022-01-27 03:51:30,964,101.00,"",115,56186.0,0,"",32,"",0.1530,""
"GSWS01_115",2022-01-27 17:09:30,965,101.00,"",115,56186.0,0,"",33,"",0.1460,""
"GSWS01_115",2022-01-28 06:27:30,966,101.00,"",115,56186.0,0,"",34,"",0.1400,""
"GSWS01_115",2022-01-28 19:45:30,967,101.00,"",115,56186.0,0,"",35,"",0.1360,""
"GSWS01_115",2022-01-29 09:03:30,968,101.00,"",115,56186.0,0,"",36,"",0.1320,""
"GSWS01_115",2022-01-29 22:21:30,969,101.00,"",115,56186.0,0,"",37,"",0.1290,""
"GSWS01_115",2022-01-30 11:39:30,970,101.00,"",115,56186.0,0,"",38,"",0.1250,""
"GSWS01_115",2022-01-31 00:57:30,971,101.00,"",115,56186.0,0,"",39,"",0.1320,""
"GSWS01_115",2022-01-31 14:15:30,972,101.00,"",115,56186.0,0,"",40,"",0.1330,""
"GSWS01_115",2022-02-01 03:33:30,973,101.00,"",115,56186.0,0,"",41,"",0.1320,""
"GSWS01_115",2022-02-01 15:37:15,974,101.00,"",115,56186.0,0,"",42,"",0.1280,""
"GSWS01_115",2022-02-01 16:51:30,975,101.00,"",115,56186.0,0,"",43,"",0.1270,""
"GSWS01_115",2022-02-02 06:09:30,976,101.00,"",115,56186.0,0,"",44,"",0.1250,""
"GSWS01_115",2022-02-02 19:27:30,977,101.00,"",115,56186.0,0,"",45,"",0.1320,""
"GSWS01_115",2022-02-03 08:45:30,978,101.00,"",115,56186.0,0,"",46,"",0.1330,""
"GSWS01_115",2022-02-03 22:03:30,979,101.00,"",115,56186.0,0,"",47,"",0.1320,""
"GSWS01_115",2022-02-04 11:21:30,980,101.00,"",115,56186.0,0,"",48,"",0.1290,""
"GSWS01_115",2022-02-05 00:39:30,981,101.00,"",115,56186.0,0,"",49,"",0.1260,""
"GSWS01_115",2022-02-05 13:57:30,982,101.00,"",115,56186.0,0,"",50,"",0.1240,""
"GSWS01_115",2022-02-06 03:15:30,983,101.00,"",115,56186.0,0,"",51,"",0.1220,""
"GSWS01_115",2022-02-06 16:33:30,984,101.00,"",115,56186.0,0,"",52,"",0.1190,""
"GSWS01_115",2022-02-07 05:51:30,985,101.00,"",115,56186.0,0,"",53,"",0.1160,""
"GSWS01_115",2022-02-07 19:09:30,986,101.00,"",115,56186.0,0,"",54,"",0.1140,""
"GSWS01_115",2022-02-08 08:27:30,987,101.00,"",115,56186.0,0,"",55,"",0.1110,""
"GSWS01_115",2022-02-08 21:45:30,988,101.00,"",115,56186.0,0,"",56,"",0.1100,""
"GSWS01_115",2022-02-09 11:03:30,989,101.00,"",115,56186.0,0,"",57,"",0.1070,""
"GSWS01_115",2022-02-10 00:21:30,990,101.00,"",115,56186.0,0,"",58,"",0.1060,""
"GSWS01_115",2022-02-10 13:39:30,991,101.00,"",115,56186.0,0,"",59,"",0.1040,""
"GSWS01_115",2022-02-11 02:57:30,992,101.00,"",115,56186.0,0,"",60,"",0.1010,""
"GSWS01_115",2022-02-11 16:15:30,993,101.00,"",115,56186.0,0,"",61,"",0.1000,""
"GSWS01_115",2022-02-12 05:33:30,994,101.00,"",115,56186.0,0,"",62,"",0.0990,""
"GSWS01_115",2022-02-12 18:51:30,995,101.00,"",115,56186.0,0,"",63,"",0.0950,""